[[{"header":{"parameterUnit":"m.s-1","parameterCategory":1,"la1":30.2991,"la2":30.254,"lo1":-89.0895,"lo2":-89.0444,"dy":0.0017,"dx":0.0017,"nx":28,"ny":28,"refTime":"2024-06-22T03:00:00:Z","depth":0,"parameterNumber":2,"parameterNumberName":"U-component_of_WINDS"},"data":[0,0,0,0,0,0,0,0,0,0,0,0,0,0,0,0,0,0,0,0,0,0,0,0,0,0,0,0,0,0,0,0,0,0,0,0,0,0,0,0,0,0,0,0,0,0,0,0,0,0,0,0,0,0,0,0,0,0,-0.2687,-0.2686,0,-0.2597,-0.2596,-0.2595,-0.2529,-0.2529,-0.2528,-0.2528,-0.2432,-0.243,-0.2428,0,0,0,0,0,0,0,0,0,0,0,0,0,-0.2801,-0.2799,-0.2687,-0.2686,-0.2685,-0.2597,-0.2596,-0.2594,-0.2529,-0.2529,-0.2528,-0.2527,-0.2432,-0.243,-0.2427,0,0,0,0,0,0,0,0,0,0,0,0,0,-0.2735,-0.2799,-0.2687,-0.2642,-0.2637,-0.2597,-0.2595,-0.2594,-0.2529,-0.2529,-0.2528,-0.2527,-0.2433,-0.243,-0.2427,-0.2424,0,0,-0.2418,-0.2416,0,0,0,0,0,0,0,0,-0.2739,-0.2731,-0.265,-0.2645,-0.2639,-0.2573,-0.26,-0.2537,-0.253,-0.257,-0.2528,-0.2527,-0.2479,-0.2472,-0.2457,-0.242,-0.2416,-0.2417,-0.2416,-0.2414,-0.2413,0,0,0,0,0,0,0,-0.2743,-0.2734,-0.2651,-0.2649,-0.2642,-0.2625,-0.2615,-0.2588,-0.253,-0.2567,-0.2562,-0.2552,-0.2476,-0.246,-0.2454,-0.2414,-0.2418,-0.2415,-0.2413,-0.2412,-0.237,-0.237,0,0,0,0,0,0,-0.2756,-0.2739,-0.2654,-0.2648,-0.2688,-0.2624,-0.2612,-0.2595,-0.253,-0.252,-0.2553,-0.2549,-0.2466,-0.2458,-0.2451,-0.2443,-0.2414,-0.2411,-0.241,-0.2369,-0.237,-0.2371,0,0,0,0,0,0,-0.2758,-0.2749,-0.2658,-0.2692,-0.2679,-0.2623,-0.2604,-0.2594,-0.2578,-0.252,-0.2509,-0.2547,-0.2465,-0.2455,-0.2431,-0.2439,-0.241,-0.2407,-0.2368,-0.2369,-0.237,-0.2427,0,0,0,0,0,0,-0.2762,-0.275,-0.2749,-0.2693,-0.2678,-0.2641,-0.2605,-0.2593,-0.2573,-0.2568,-0.2512,-0.2502,-0.2464,-0.2436,-0.2428,-0.2434,-0.2405,-0.2367,-0.2368,-0.237,-0.2424,-0.243,-0.2435,0,0,0,0,0,-0.2766,-0.2768,-0.2749,-0.2739,-0.2676,-0.2642,-0.2633,-0.259,-0.2574,-0.2572,-0.2535,-0.2503,-0.2439,-0.2435,-0.2425,-0.243,-0.2366,-0.2368,-0.237,-0.2422,-0.2429,-0.2435,0,0,0,0,0,0,-0.2825,-0.276,-0.2738,-0.2722,-0.2688,-0.2631,-0.2627,-0.2599,-0.2567,-0.2564,-0.251,-0.2498,-0.248,-0.2452,-0.2448,-0.2423,-0.2399,-0.2399,-0.2442,-0.2448,-0.2453,-0.246,-0.2402,0,0,0,0,0,-0.2837,-0.2816,-0.2759,-0.2751,-0.2735,-0.2684,-0.2668,-0.2638,-0.26,-0.2584,-0.2545,-0.2509,-0.2481,-0.2463,-0.2433,-0.242,-0.2407,-0.2419,-0.2424,-0.2429,-0.2429,-0.242,-0.2424,-0.2376,-0.2376,-0.2376,0,0,-0.286,-0.2822,-0.2811,-0.2762,-0.2732,-0.271,-0.2672,-0.2651,-0.2634,-0.2581,-0.2556,-0.2527,-0.2482,-0.2464,-0.2454,-0.244,-0.2439,-0.2431,-0.2435,-0.2432,-0.2422,-0.2426,-0.2431,-0.2377,-0.2377,-0.2377,0,0,-0.2891,-0.286,-0.2849,-0.282,-0.2776,-0.2742,-0.274,-0.2687,-0.2665,-0.264,-0.26,-0.2578,-0.2531,-0.2501,-0.2479,-0.25,-0.2469,-0.2491,-0.2519,-0.251,-0.2514,-0.2517,-0.2524,-0.2527,-0.2492,-0.2492,-0.2492,0,-0.2925,-0.2892,-0.2847,-0.2829,-0.2808,-0.276,-0.2748,-0.2721,-0.2669,-0.2656,-0.2641,-0.2581,-0.2547,-0.2521,-0.2527,-0.2511,-0.2506,-0.2497,-0.2518,-0.252,-0.2522,-0.2528,-0.2531,-0.2495,-0.2495,-0.2494,-0.2494,0,-0.2936,-0.2913,-0.291,-0.2862,-0.2841,-0.2826,-0.2778,-0.2761,-0.2733,-0.2701,-0.2676,-0.2635,-0.2596,-0.2588,-0.256,-0.2558,-0.2551,-0.2528,-0.2502,-0.2531,-0.2535,-0.2537,-0.2499,-0.2498,-0.2497,-0.2497,0,0,-0.3001,-0.2929,-0.2928,-0.2906,-0.2854,-0.2835,-0.2818,-0.2781,-0.2768,-0.2733,-0.2717,-0.2678,-0.2657,-0.2633,-0.2601,-0.2593,-0.2612,-0.2571,-0.2569,-0.258,-0.2607,-0.2624,-0.2628,-0.2592,-0.2592,-0.2592,-0.2611,0,-0.3023,-0.2991,-0.295,-0.2931,-0.2909,-0.2863,-0.2848,-0.2814,-0.2783,-0.276,-0.2725,-0.2699,-0.2673,-0.2658,-0.2649,-0.2612,-0.2617,-0.261,-0.2575,-0.2575,-0.2588,-0.263,-0.2648,-0.2668,-0.2612,-0.2612,-0.2613,0,-0.3045,-0.3014,-0.2993,-0.2943,-0.2932,-0.292,-0.2883,-0.2861,-0.2821,-0.2799,-0.2773,-0.2739,-0.2718,-0.2696,-0.2665,-0.2661,-0.2645,-0.2624,-0.2624,-0.2619,-0.2595,-0.2626,-0.2673,-0.2676,-0.2615,-0.2615,-0.2615,0,-0.3095,-0.3048,-0.3029,-0.3011,-0.2952,-0.2944,-0.2919,-0.2878,-0.2859,-0.2827,-0.2813,-0.2779,-0.2759,-0.2733,-0.269,-0.2678,-0.2664,-0.2638,-0.2645,-0.2646,-0.2643,-0.2644,-0.2688,-0.2634,-0.2634,-0.2634,-0.2633,0,-0.3124,-0.3113,-0.3051,-0.3039,-0.3025,-0.2978,-0.2965,-0.2936,-0.29,-0.2881,-0.2839,-0.2823,-0.2767,-0.2744,-0.271,-0.269,-0.2682,-0.2663,-0.2654,-0.2666,-0.2669,-0.2654,-0.2652,-0.2634,-0.2634,-0.2634,-0.2634,0,-0.3177,-0.3135,-0.3111,-0.3058,-0.3044,-0.3036,-0.2989,-0.2976,-0.2943,-0.292,-0.2912,-0.286,-0.283,-0.2785,-0.2742,-0.2719,-0.2704,-0.269,-0.2718,-0.2713,-0.2722,-0.2721,-0.2758,-0.276,-0.2705,-0.2705,-0.2706,0,-0.3198,-0.3188,-0.3134,-0.3119,-0.3096,-0.3072,-0.3052,-0.3005,-0.2986,-0.2941,-0.2933,-0.29,-0.2871,-0.2826,-0.2784,-0.275,-0.2734,-0.2749,-0.2729,-0.2742,-0.2734,-0.2735,-0.2734,-0.2754,-0.2755,-0.2756,-0.2756,0,-0.324,-0.322,-0.3194,-0.316,-0.3138,-0.3109,-0.3078,-0.3068,-0.3015,-0.2995,-0.2965,-0.2943,-0.2899,-0.2867,-0.2828,-0.28,-0.2769,-0.2763,-0.2763,-0.2775,-0.2792,-0.2783,-0.2731,-0.2762,-0.2762,-0.2761,-0.2761,-0.2761,-0.3277,-0.3267,-0.3227,-0.3199,-0.3171,-0.3143,-0.3128,-0.3094,-0.3068,-0.303,-0.3003,-0.2975,-0.2934,-0.2879,-0.2853,-0.283,-0.2816,-0.2816,-0.2816,-0.2816,-0.2821,-0.2796,-0.2822,-0.2822,-0.2822,-0.2822,-0.2821,0,-0.3317,-0.329,-0.3264,-0.3223,-0.3201,-0.3175,-0.3139,-0.3122,-0.3097,-0.3063,-0.3036,-0.3001,-0.297,-0.2926,-0.2891,-0.2881,-0.2865,-0.2873,-0.2873,-0.2867,-0.2835,-0.2838,-0.2886,-0.2886,-0.2886,-0.2886,-0.2886,-0.2886,-0.3335,-0.3316,-0.3291,-0.3258,-0.3229,-0.3202,-0.3184,-0.3157,-0.313,-0.3093,-0.3067,-0.3039,-0.3001,-0.2963,-0.2933,-0.2921,-0.291,-0.2922,-0.2905,-0.2875,-0.287,-0.2864,-0.2867,-0.292,-0.292,-0.294,-0.294,-0.294]},{"header":{"parameterUnit":"m.s-1","parameterCategory":1,"la1":30.2991,"la2":30.254,"lo1":-89.0895,"lo2":-89.0444,"dy":0.0017,"dx":0.0017,"nx":28,"ny":28,"refTime":"2024-06-22T03:00:00:Z","depth":0,"parameterNumber":3,"parameterNumberName":"V-component_of_WINDS"},"data":[0,0,0,0,0,0,0,0,0,0,0,0,0,0,0,0,0,0,0,0,0,0,0,0,0,0,0,0,0,0,0,0,0,0,0,0,0,0,0,0,0,0,0,0,0,0,0,0,0,0,0,0,0,0,0,0,0,0,2.347,2.347,0,2.3415,2.3415,2.3414,2.3433,2.3434,2.3435,2.3437,2.3374,2.3371,2.3368,0,0,0,0,0,0,0,0,0,0,0,0,0,2.3585,2.3583,2.347,2.347,2.3469,2.3416,2.3415,2.3414,2.3433,2.3434,2.3436,2.3437,2.3375,2.3372,2.3368,0,0,0,0,0,0,0,0,0,0,0,0,0,2.3533,2.3582,2.3471,2.3472,2.3472,2.3416,2.3415,2.3414,2.3432,2.3434,2.3436,2.3438,2.3376,2.3372,2.3368,2.3305,0,0,2.3355,2.3353,0,0,0,0,0,0,0,0,2.3536,2.3529,2.3473,2.3472,2.3471,2.3433,2.3432,2.3377,2.3432,2.3447,2.3437,2.3439,2.3392,2.3386,2.3372,2.3302,2.3299,2.3355,2.3352,2.335,2.3349,0,0,0,0,0,0,0,2.354,2.3531,2.3448,2.3472,2.3471,2.3473,2.3468,2.3422,2.341,2.3446,2.3447,2.3441,2.3392,2.3376,2.337,2.3298,2.3355,2.3351,2.3348,2.3347,2.3171,2.3169,0,0,0,0,0,0,2.3544,2.3534,2.345,2.3447,2.3509,2.347,2.3464,2.3443,2.341,2.3407,2.3439,2.3442,2.3382,2.3375,2.3368,2.329,2.335,2.3346,2.3344,2.3174,2.3171,2.3169,0,0,0,0,0,0,2.3547,2.3537,2.3452,2.3491,2.348,2.3466,2.3443,2.3441,2.3426,2.3405,2.3402,2.3426,2.3383,2.3374,2.332,2.3288,2.3344,2.334,2.3176,2.3173,2.317,2.3135,0,0,0,0,0,0,2.355,2.3538,2.3515,2.349,2.3478,2.3407,2.3441,2.3439,2.3419,2.3422,2.3392,2.3388,2.3384,2.3327,2.3316,2.3284,2.3337,2.3179,2.3175,2.3171,2.3139,2.3131,2.3125,0,0,0,0,0,2.3554,2.3507,2.3514,2.3504,2.345,2.3406,2.3398,2.3396,2.3416,2.3392,2.3379,2.3389,2.3294,2.3321,2.3309,2.3275,2.3181,2.3176,2.3171,2.3142,2.3133,2.3125,0,0,0,0,0,0,2.3526,2.3503,2.3511,2.3455,2.3432,2.3409,2.3378,2.3386,2.3356,2.3359,2.3356,2.3349,2.3293,2.3279,2.3309,2.3211,2.324,2.3233,2.3222,2.3213,2.3206,2.3209,2.3334,0,0,0,0,0,2.3514,2.3481,2.3463,2.3415,2.3403,2.3393,2.3373,2.3374,2.3349,2.3339,2.3322,2.3296,2.326,2.3236,2.3202,2.3138,2.313,2.3109,2.3101,2.3096,2.3088,2.305,2.304,2.3153,2.3153,2.3153,0,0,2.3487,2.3471,2.345,2.3408,2.3391,2.3355,2.3384,2.3346,2.3318,2.3332,2.328,2.3267,2.3237,2.3178,2.315,2.3164,2.3056,2.3089,2.3085,2.3081,2.3044,2.3034,2.3024,2.315,2.315,2.3151,0,0,2.3419,2.3405,2.3362,2.3345,2.3318,2.3312,2.3302,2.3277,2.3269,2.3218,2.3227,2.3193,2.3132,2.311,2.3091,2.3015,2.3022,2.3004,2.2965,2.2928,2.2919,2.2911,2.2881,2.287,2.2997,2.2997,2.2997,0,2.3388,2.3337,2.3339,2.3299,2.3279,2.3293,2.3248,2.323,2.3193,2.3178,2.3195,2.3117,2.3099,2.3033,2.3014,2.2999,2.2985,2.3006,2.2921,2.2913,2.2905,2.2876,2.2865,2.2995,2.2995,2.2995,2.2996,0,2.3299,2.3263,2.3231,2.3197,2.3174,2.3132,2.3125,2.3101,2.3104,2.3094,2.304,2.3019,2.2979,2.2964,2.2966,2.2898,2.2907,2.2922,2.295,2.2892,2.2864,2.2854,2.2992,2.2993,2.2993,2.2994,0,0,2.321,2.3178,2.3166,2.315,2.3122,2.3093,2.3051,2.3014,2.2992,2.2967,2.2929,2.2877,2.2891,2.2869,2.2868,2.2836,2.2774,2.2855,2.2854,2.2838,2.2694,2.268,2.2667,2.278,2.2778,2.2776,2.2695,0,2.3138,2.3066,2.3066,2.2998,2.2963,2.2975,2.2938,2.2915,2.2906,2.2873,2.2862,2.2824,2.2847,2.2833,2.2803,2.2788,2.2744,2.2794,2.2741,2.2739,2.2745,2.2654,2.264,2.2564,2.2685,2.2683,2.2682,0,2.3044,2.3017,2.2946,2.2921,2.2907,2.2873,2.2839,2.2809,2.2782,2.2777,2.2753,2.2757,2.2711,2.2743,2.2678,2.2712,2.269,2.268,2.2677,2.2669,2.2705,2.264,2.254,2.2528,2.2665,2.2667,2.2668,0,2.2983,2.2928,2.2878,2.2864,2.2836,2.2811,2.2798,2.2774,2.2752,2.2721,2.2706,2.267,2.2649,2.262,2.2613,2.2638,2.2547,2.2579,2.2539,2.2538,2.2516,2.2517,2.2408,2.2508,2.2508,2.2508,2.2508,0,2.2901,2.2856,2.285,2.2819,2.2768,2.2768,2.2717,2.2705,2.2684,2.2648,2.2657,2.2623,2.2618,2.2582,2.2576,2.2521,2.2512,2.2505,2.2503,2.2502,2.2503,2.2486,2.249,2.2505,2.2506,2.2506,2.2507,0,2.2823,2.2818,2.2763,2.2741,2.2734,2.2698,2.2677,2.2646,2.2638,2.2593,2.2582,2.2568,2.2527,2.2518,2.2468,2.2464,2.2397,2.2402,2.2406,2.2406,2.2365,2.2367,2.2238,2.222,2.2334,2.2333,2.2332,0,2.2769,2.2735,2.271,2.2688,2.2673,2.2638,2.2615,2.2614,2.2589,2.2557,2.2528,2.2488,2.2455,2.2387,2.2371,2.2332,2.2334,2.2292,2.2328,2.2328,2.233,2.2331,2.2326,2.2284,2.2283,2.2282,2.2281,0,2.2674,2.2673,2.2641,2.2608,2.2581,2.2555,2.2529,2.251,2.2505,2.2477,2.2435,2.241,2.2359,2.2318,2.2279,2.2262,2.2269,2.227,2.2258,2.2255,2.2258,2.2253,2.2384,2.2272,2.2273,2.2274,2.2274,2.2275,2.2604,2.2574,2.2551,2.2514,2.2496,2.2472,2.2441,2.2429,2.2395,2.2355,2.2356,2.2309,2.2282,2.2231,2.2212,2.2174,2.2187,2.217,2.2165,2.216,2.2155,2.2267,2.2167,2.2167,2.2167,2.2168,2.2168,0,2.2506,2.2493,2.246,2.2424,2.2395,2.2408,2.238,2.2354,2.2313,2.2289,2.2257,2.2207,2.2167,2.2148,2.2108,2.208,2.2082,2.2069,2.207,2.2065,2.2147,2.216,2.2068,2.2068,2.2068,2.2068,2.2068,2.2068,2.2452,2.24,2.2396,2.2334,2.232,2.2276,2.2259,2.2236,2.2216,2.2161,2.2128,2.2117,2.2093,2.2051,2.2014,2.2009,2.1992,2.1977,2.1973,2.205,2.206,2.2069,2.2081,2.1974,2.1974,2.1894,2.1893,2.1893]}]]